"Pseudo-MPEC" for P1186th

Created 2020 Oct 20 16:07:30 UT using Find_Orb

Click here for an explanation of pseudo-MPECs

 
 Astrometry: 
     P1186th  C2020 10 16m8N(a)yKWR$B/rL-Wf[0XKPKrNAstrometryUU^UTQH]4/@3ZQ@^F51
     P1186th  C2020 10 16sO1\BfqSEvredacted;]Jne%$Iclick52There]ohFiVAv?n%*n;F51
     P1186th  C2020 10 16L[fYZc^Wfor'd5*yH_6='\a](3[v8?E-FZt%:]vRnW*bo,!+#\AdF51
     P1186th  C2020 10 16t^l-sC9ha_H[r:nALeKh41it4%;explanationyySEaMha@0YX^QF51
     P1186th ^C2020 10 17.28369323 11 07.229-27 32 53.98   ~AHJ7 21.88GVNEOCP568
     P1186th ^C2020 10 17.28464023 11 07.303-27 32 50.28   ~AHJ7 21.84GVNEOCP568
     P1186th ^C2020 10 17.28558623 11 07.380-27 32 46.78   ~AHJ7 21.99GVNEOCP568
     P1186th ^C2020 10 20.29350323 16 04.392-24 20 53.73   ~AK7q 22.18GVNEOCP568
     P1186th ^C2020 10 20.29445323 16 04.474-24 20 50.13   ~AK7q 22.20GVNEOCP568
     P1186th ^C2020 10 20.29540623 16 04.553-24 20 46.46   ~AK7q 21.98GVNEOCP568

Station data:
(568) Mauna Kea  (N19.826116 W155.472200)  US/Hawaii.
(F51) Pan-STARRS 1, Haleakala  (N20.707235 W156.255910)  US/Hawaii.
   Observers N. Primak, A. Schultz, S. Watters, J. Thiel, T. Goggia. Measurer
   PS1 Science Consortium. 1.8-m Ritchey-Chrétien + CCD.

Orbital elements:  P1186th
   Perihelion 2020 Oct 4.095395 +/- 0.103 TT =  2:17:22 (JD 2459126.595395)
Epoch 2020 Oct 20.0 TT = JDT 2459142.5   Earth MOID: 0.1723   AutoNEOCP
M   7.44898105 +/- 0.45             (J2000 ecliptic)
n   0.46835372 +/- 0.0273           Peri.  322.82510 +/- 0.21
a   1.64217738 +/- 0.0638           Node    41.35595 +/- 0.48
e   0.3004025 +/- 0.0223            Incl.    9.21330 +/- 0.44
P   2.10/768.64d           H 23.5   G  0.15   U 10.3  
q 1.14886313 +/- 0.00828    Q 2.13549162 +/- 0.124
From 10 observations 2020 Oct. 16-20; mean residual 0".16
Residuals in arcseconds: 
201016 F51  .03+  .12-    201017 568  .02+  .06-    201020 568  .01+  .02-    
201016 F51  .04-  .50-    201017 568  .00   .06+    201020 568  .01-  .01+    
201016 F51  .03+  .46+    201017 568  .02+  .02-    
201016 F51  .06-  .19+    201020 568  .01-  .01+    

Ephemerides (geocentric):
Date (UTC) HH   RA              Dec         delta   r     elong  mag " sig PA
---- -- -- --  -------------   -----------  ------ ------ -----  --- ---- ---
2020 10 20 16  23 16 41.596   -23 56 35.81  .22964 1.1580 130.5 22.3 1.12 171
2020 10 20 17  23 16 45.811   -23 53 55.97  .22971 1.1581 130.5 22.3 1.10 173
2020 10 20 18  23 16 50.029   -23 51 16.13  .22978 1.1581 130.5 22.3 1.09 175
2020 10 20 19  23 16 54.248   -23 48 36.29  .22984 1.1582 130.5 22.3 1.08 177
2020 10 20 20  23 16 58.469   -23 45 56.45  .22991 1.1582 130.5 22.3 1.07   0
2020 10 20 21  23 17 02.693   -23 43 16.62  .22998 1.1583 130.5 22.3 1.06   2
2020 10 20 22  23 17 06.918   -23 40 36.78  .23004 1.1583 130.5 22.3 1.05   4
2020 10 20 23  23 17 11.145   -23 37 56.95  .23011 1.1584 130.5 22.3 1.05   7
2020 10 21 00  23 17 15.375   -23 35 17.13  .23018 1.1584 130.5 22.3 1.05   9
2020 10 21 01  23 17 19.607   -23 32 37.30  .23024 1.1584 130.5 22.3 1.05  12
2020 10 21 02  23 17 23.840   -23 29 57.48  .23031 1.1585 130.5 22.3 1.05  14
2020 10 21 03  23 17 28.076   -23 27 17.67  .23038 1.1585 130.6 22.3 1.05  17
2020 10 21 04  23 17 32.314   -23 24 37.85  .23045 1.1586 130.6 22.3 1.06  20
2020 10 21 05  23 17 36.554   -23 21 58.05  .23052 1.1586 130.6 22.3 1.07  22
2020 10 21 06  23 17 40.795   -23 19 18.24  .23059 1.1587 130.6 22.3 1.08  25
2020 10 21 07  23 17 45.039   -23 16 38.44  .23065 1.1587 130.6 22.3 1.09  28
2020 10 21 08  23 17 49.285   -23 13 58.65  .23072 1.1588 130.6 22.3 1.11  30
2020 10 21 09  23 17 53.533   -23 11 18.87  .23079 1.1588 130.6 22.3 1.13  33
2020 10 21 10  23 17 57.783   -23 08 39.09  .23086 1.1589 130.6 22.3 1.15  35
2020 10 21 11  23 18 02.035   -23 05 59.31  .23093 1.1589 130.6 22.3 1.18  38
2020 10 21 12  23 18 06.289   -23 03 19.55  .23100 1.1590 130.6 22.3 1.20  40
2020 10 21 13  23 18 10.545   -23 00 39.79  .23107 1.1590 130.6 22.3 1.23  42
2020 10 21 14  23 18 14.803   -22 58 00.03  .23114 1.1591 130.6 22.3 1.26  45
2020 10 21 15  23 18 19.063   -22 55 20.29  .23121 1.1591 130.6 22.3 1.30  47
2020 10 21 16  23 18 23.325   -22 52 40.55  .23128 1.1592 130.6 22.3 1.33  49
2020 10 21 17  23 18 27.589   -22 50 00.82  .23135 1.1592 130.6 22.3 1.37  51
2020 10 21 18  23 18 31.855   -22 47 21.11  .23143 1.1593 130.6 22.3 1.41  53
2020 10 21 19  23 18 36.123   -22 44 41.40  .23150 1.1593 130.6 22.3 1.46  54
2020 10 21 20  23 18 40.393   -22 42 01.69  .23157 1.1594 130.6 22.3 1.50  56
2020 10 21 21  23 18 44.664   -22 39 22.00  .23164 1.1594 130.6 22.3 1.55  58
2020 10 21 22  23 18 48.938   -22 36 42.32  .23171 1.1595 130.6 22.3 1.60  59
2020 10 21 23  23 18 53.214   -22 34 02.65  .23178 1.1595 130.6 22.3 1.65  61
2020 10 22 00  23 18 57.492   -22 31 22.99  .23186 1.1596 130.6 22.3 1.70  62
2020 10 22 01  23 19 01.772   -22 28 43.34  .23193 1.1596 130.6 22.3 1.75  63
2020 10 22 02  23 19 06.054   -22 26 03.71  .23200 1.1597 130.6 22.3 1.81  65
2020 10 22 03  23 19 10.338   -22 23 24.08  .23207 1.1597 130.6 22.3 1.86  66
2020 10 22 04  23 19 14.624   -22 20 44.47  .23215 1.1598 130.6 22.3 1.92  67
2020 10 22 05  23 19 18.911   -22 18 04.87  .23222 1.1598 130.6 22.3 1.98  68
2020 10 22 06  23 19 23.201   -22 15 25.28  .23229 1.1598 130.6 22.3 2.04  69
2020 10 22 07  23 19 27.493   -22 12 45.70  .23237 1.1599 130.6 22.3 2.10  70
2020 10 22 08  23 19 31.786   -22 10 06.14  .23244 1.1599 130.6 22.3 2.17  71
2020 10 22 09  23 19 36.082   -22 07 26.59  .23252 1.1600 130.6 22.3 2.23  72
2020 10 22 10  23 19 40.379   -22 04 47.05  .23259 1.1601 130.6 22.3 2.30  72
2020 10 22 11  23 19 44.679   -22 02 07.53  .23267 1.1601 130.6 22.3 2.37  73
2020 10 22 12  23 19 48.980   -21 59 28.03  .23274 1.1602 130.6 22.3 2.43  74
2020 10 22 13  23 19 53.284   -21 56 48.54  .23282 1.1602 130.6 22.3 2.50  75
2020 10 22 14  23 19 57.589   -21 54 09.06  .23289 1.1603 130.6 22.3 2.57  75
2020 10 22 15  23 20 01.896   -21 51 29.60  .23297 1.1603 130.6 22.3 2.65  76